DW8054 Weather Reports


Display with metric or nautical units.
time (UTC)temp
F
wind
direction
speed
MPH
gust
MPH
rain 1hr
in
rain 24hr
in
rain mn
in
humidity
%
barometer
mb
20260507234535 53 360 0.0 7.0 0.00 0.06 0.00 45 1004.3
20260507233036 54 360 0.0 7.0 0.00 0.06 0.00 43 1004.2
20260507231534 56 327 1.0 6.0 0.00 0.06 0.00 41 1004.1
20260507230037 56 304 2.0 5.0 0.00 0.06 0.00 40 1003.9
20260507224536 56 240 3.0 9.0 0.00 0.06 0.00 38 1003.8
20260507223033 58 360 3.0 14.0 0.00 0.06 0.00 38 1003.7
20260507221532 59 360 4.0 10.0 0.00 0.06 0.00 37 1003.6
20260507220032 59 320 3.0 12.0 0.00 0.06 0.00 37 1003.5
20260507214531 59 33 2.0 12.0 0.00 0.08 0.00 39 1003.5
20260507213036 60 219 3.0 11.0 0.00 0.08 0.00 36 1003.4
20260507211542 60 169 3.0 10.0 0.00 0.08 0.00 38 1003.5
20260507210028 59 360 4.0 16.0 0.00 0.08 0.00 38 1003.4
20260507204526 58 312 3.0 9.0 0.00 0.14 0.00 42 1003.3
20260507203026 60 290 4.0 11.0 0.00 0.14 0.00 41 1003.3
20260507201535 60 24 1.0 9.0 0.00 0.14 0.00 42 1003.3
20260507200033 59 360 3.0 12.0 0.00 0.14 0.00 42 1003.3
20260507194524 60 291 5.0 15.0 0.00 0.15 0.00 40 1003.5
20260507193025 60 360 2.0 11.0 0.00 0.15 0.00 41 1003.6
20260507191525 59 360 6.0 14.0 0.00 0.15 0.00 40 1003.6
20260507190023 59 72 3.0 13.0 0.00 0.15 0.00 40 1003.7
20260507184522 60 335 4.0 11.0 0.00 0.34 0.00 40 1003.9
20260507183023 59 298 2.0 12.0 0.00 0.34 0.00 43 1003.8
20260507181520 60 284 2.0 14.0 0.00 0.34 0.00 51 1003.9
20260507180035 59 279 5.0 17.0 0.00 0.34 0.00 47 1003.8
20260507174520 59 5 4.0 11.0 0.00 0.35 0.00 48 1003.8
20260507173022 59 282 3.0 23.0 0.00 0.35 0.00 51 1004.0
20260507171512 58 271 3.0 12.0 0.00 0.35 0.00 56 1004.2
20260507170028 56 284 4.0 15.0 0.00 0.35 0.00 63 1004.3
20260507164509 57 278 2.0 11.0 0.00 0.35 0.00 67 1004.5
20260507163008 57 360 2.0 14.0 0.00 0.35 0.00 61 1004.5
20260507161508 58 226 4.0 11.0 0.00 0.35 0.00 61 1004.5
20260507160007 57 311 6.0 14.0 0.00 0.35 0.00 59 1004.7
20260507154508 58 340 4.0 14.0 0.00 0.35 0.00 61 1004.8
20260507153005 57 287 2.0 9.0 0.00 0.35 0.00 65 1005.0
20260507151504 56 234 4.0 10.0 0.00 0.35 0.00 64 1005.1
20260507150005 58 303 4.0 10.0 0.00 0.35 0.00 64 1005.1
20260507144501 57 167 5.0 11.0 0.00 0.35 0.00 60 1005.1
20260507143108 56 277 5.0 12.0 0.00 0.35 0.00 61 1005.1
20260507141603 57 360 3.0 10.0 0.00 0.35 0.00 65 1004.9
20260507134555 56 360 2.0 10.0 0.00 0.35 0.00 65 1005.1
20260507133053 55 286 4.0 10.0 0.00 0.35 0.00 66 1005.2
20260507131552 55 321 3.0 9.0 0.00 0.35 0.00 65 1005.3
20260507130100 54 262 3.0 8.0 0.00 0.35 0.00 68 1005.3
20260507124551 53 305 3.0 12.0 0.00 0.35 0.00 72 1005.5
20260507123040 52 350 3.0 6.0 0.00 0.35 0.00 77 1005.5
20260507121539 51 22 1.0 7.0 0.00 0.35 0.00 83 1005.6
20260507120038 50 286 1.0 5.0 0.00 0.35 0.00 88 1005.6
20260507114535 49 273 1.0 6.0 0.00 0.35 0.00 90 1005.7
20260507113035 48 301 0.0 4.0 0.00 0.35 0.00 94 1005.5
20260507111534 47 360 0.0 3.0 0.00 0.35 0.00 95 1005.4
20260507110039 46 360 0.0 4.0 0.00 0.35 0.00 95 1005.6
20260507104536 46 360 0.0 0.0 0.00 0.35 0.00 95 1005.6
20260507103046 46 360 0.0 5.0 0.00 0.35 0.00 96 1005.1
20260507101531 46 360 1.0 4.0 0.00 0.35 0.00 96 1005.7
20260507100030 46 360 0.0 1.0 0.00 0.35 0.00 96 1005.5
20260507094531 46 360 0.0 4.0 0.00 0.35 0.00 95 1005.4
20260507093028 46 360 0.0 6.0 0.00 0.35 0.00 95 1005.5
20260507091534 46 360 1.0 5.0 0.00 0.35 0.00 95 1005.2
20260507090027 46 360 1.0 10.0 0.00 0.35 0.00 95 1004.5
20260507084537 46 360 0.0 4.0 0.00 0.35 0.00 95 1004.8
20260507083020 47 360 1.0 3.0 0.00 0.35 0.00 95 1004.7
20260507081519 47 360 0.0 5.0 0.00 0.35 0.00 95 1005.0
20260507080016 47 360 1.0 5.0 0.00 0.35 0.00 95 1004.6
20260507074515 47 360 1.0 9.0 0.00 0.35 0.00 95 1004.2
20260507073012 47 360 1.0 6.0 0.00 0.35 0.00 95 1004.3
20260507071508 48 360 0.0 3.0 0.00 0.35 0.00 96 1004.3
20260507070011 48 360 2.0 7.0 0.00 0.35 0.00 96 1004.2
20260507064506 48 360 1.0 7.0 0.00 0.35 0.00 97 1003.9
20260507063005 48 360 0.0 4.0 0.00 0.35 0.00 97 1003.7
20260507061603 48 360 2.0 5.0 0.00 0.35 0.00 97 1004.1
20260507060104 49 360 0.0 5.0 0.00 0.35 0.00 97 1003.8
20260507054615 49 360 0.0 5.0 0.00 0.35 0.00 97 1003.6
20260507053107 49 360 2.0 9.0 0.00 0.35 0.00 97 1003.7
20260507051558 49 360 2.0 5.0 0.00 0.35 0.00 97 1003.6
20260507050056 50 360 2.0 8.0 0.00 0.35 0.00 97 1003.6
20260507044556 50 360 1.0 8.0 0.01 0.35 0.00 97 1003.7
20260507043046 51 360 2.0 7.0 0.03 0.35 0.00 97 1003.5
20260507041557 52 360 0.0 6.0 0.03 0.35 0.00 97 1003.1
20260507040043 52 360 1.0 7.0 0.03 0.35 0.00 97 1003.3
20260507034539 53 360 1.0 7.0 0.03 0.34 0.14 97 1003.3
20260507033038 53 360 3.0 8.0 0.01 0.32 0.12 97 1003.3
20260507031537 54 360 2.0 12.0 0.02 0.32 0.12 98 1003.2
20260507030031 55 360 2.0 8.0 0.03 0.32 0.12 98 1002.8
20260507024533 57 360 3.0 9.0 0.02 0.31 0.11 98 1002.7
20260507023023 58 258 1.0 7.0 0.02 0.31 0.11 98 1002.7
20260507021530 58 239 3.0 8.0 0.01 0.30 0.10 98 1002.7
20260507020023 58 233 3.0 11.0 0.00 0.28 0.09 98 1002.7
20260507014523 58 231 4.0 9.0 0.00 0.28 0.09 98 1002.8
20260507013022 58 230 4.0 12.0 0.00 0.28 0.09 98 1002.7
20260507011523 59 224 4.0 9.0 0.00 0.28 0.09 98 1002.8
20260507010119 59 251 5.0 11.0 0.00 0.28 0.09 98 1002.7
20260507004518 59 246 6.0 17.0 0.00 0.28 0.09 98 1002.8
20260507003016 59 232 5.0 10.0 0.00 0.28 0.09 98 1002.8
20260507001516 59 223 5.0 12.0 0.00 0.28 0.09 98 1002.7
20260507000022 59 225 5.0 12.0 0.00 0.28 0.09 98 1002.6